Weather Roundup
Issued by NWS Chicago, IL

Home | Current Version | Previous Version | Graphics & Text | Print | Product List | Glossary On
Versions: 1 2 3 4 5 6 7 8 9 10 11 12 13 14 15 16 17 18 19 20 21 22 23 24 25 26 27 28 29 30 31 32 33 34 35 36 37 38 39 40 41 42 43 44 45 46 47 48 49 50
000
NZUS59 KLOT 131308
HRRLOT

CHICAGO AREA WEATHER ROUNDUP
NATIONAL WEATHER SERVICE CHICAGO/ROMEOVILLE IL
700 AM CST WED DEC 13 2017

NOTE: "FAIR" INDICATES FEW OR NO CLOUDS BELOW 12,000 FEET WITH NO
SIGNIFICANT WEATHER AND/OR OBSTRUCTIONS TO VISIBILITY.

* THESE STATIONS ARE NOT UNDER NWS QUALITY CONTROL. THEY ALSO MAY NOT
  REPORT WEATHER SUCH AS PRECIPITATION OR FOG.

ILZ005-006-012>014-019>023-131400-
NORTHEAST ILLINOIS

CITY           SKY/WX    TMP DP  RH WIND       PRES   REMARKS
OHARE          CLOUDY    26  12  55 S12       29.62F WCI  16
MIDWAY         CLOUDY    27  11  51 S12       29.65F WCI  17
AURORA         CLOUDY    26  15  63 SE14      29.61F WCI  14
LANSING*       CLOUDY    26  12  57 S13G18    29.68F WCI  14
JOLIET*        CLOUDY    29  13  50 S9G20     29.65F WCI  21
WAUKEGAN       CLOUDY    24  12  60 S13G22    29.58F WCI  12
DUPAGE AIRPORT CLOUDY    25  14  63 S13       29.60F WCI  14
WHEELING       CLOUDY    26  12  55 S16       29.61F WCI  14
KANKAKEE*      CLOUDY    27   9  47 S13       29.69F WCI  16
MORRIS*        CLOUDY    27  12  53 S16       29.63F WCI  15
LEWIS AIRPORT* CLOUDY    26  13  56 S14       29.65F WCI  15
NORTHERLY ISL    N/A     26  11  52 S10         N/A  WCI  16
$$

WIZ051-052-058>065-066-070>072-131400-
SOUTHEAST WISCONSIN

CITY           SKY/WX    TMP DP  RH WIND       PRES   REMARKS
MILWAUKEE      CLOUDY    23  18  81 S13G26    29.57F WCI  11
KENOSHA*       CLOUDY    25  12  58 S16       29.57F WCI  12
RACINE*        CLOUDY    24  17  74 S13G24    29.58F WCI  12
BURLINGTON       N/A    N/A N/A N/A MISG        N/A
WAUKESHA       CLOUDY    19  14  79 SE16      29.53F WCI   5
WEST BEND      CLOUDY    19  18  93 S7        29.50F WCI  10
$$

INZ001>003-010>013-019-020-131400-
NORTHWEST INDIANA

CITY           SKY/WX    TMP DP  RH WIND       PRES   REMARKS
GARY*          CLOUDY    27   9  46 S12       29.69F WCI  16
MICHIGAN CITY* NOT AVBL
RENSSELAER*    NOT AVBL
VALPARAISO     CLOUDY    24  11  57 S13       29.70F WCI  12
$$

LMZ740>746-131400-
SOUTHERN LAKE MICHIGAN

STATION/POSITION TIME  SKY/WX   TEMP WIND        PRES    VSBY
                                AIR  DIR/SP/G
                 (UTC)          (F)  (DEG/KT/KT) (MB)    (MI)
HARRISON CRIB    1240            27  180/ 24/ 27   N/A
BURNHAM HARBOR   1300            26  180/  9/ 12   N/A
CALUMET HARBOR   1248            25  150/ 11/ 13 1004.2F
BURNS HARBOR     1240            24  170/ 12/ 20 1006.4F
MICHIGAN CITY    1240            22  150/ 13/ 16   N/A
$$

ABBREVIATIONS USED IN REMARKS
   TC - TEMPERATURE IN CELSIUS
  WCI - WIND CHILL INDEX
   HX - HEAT INDEX
  VSB - VISIBILITY
$$




USA.gov is the U.S. government's official web portal to all federal, state and local government web resources and services.